User: anonymous   Login
Location: Unspecified
(0.0000°N, 0.0000°E)
Time: 23:43:00
(UTC+00:00)
Language:

SR 8 - Orbit

View from above orbital plane
View from above orbital plane
View from above satellite
View from above satellite

Ground track
Ground track

The orbit data is extracted from the following two-line orbital elements,

1 01738U 65093A   17349.17303256 -.00000095  00000-0  18001-4 0  9992
2 01738  59.7082 351.2800 0140718  77.1754 284.4964 14.40141541729744
Epoch (UTC): 15 December 2017 04:09:10
Eccentricity: 0.0140718
inclination: 59.7082°
perigee height: 657 km
apogee height: 858 km
right ascension of ascending node: 351.2800°
argument of perigee: 77.1754°
revolutions per day: 14.40141541
mean anomaly at epoch: 284.4964°
orbit number at epoch: 72974

The dashed part of the orbit path shows where the satellite is in the earth's shadow,  

DLR